Location: Newark
(34.3481°N, 134.0494°E)
Time: 07:40:06
(UTC+00:00)

Vanguard 3 - Pass Details

Date: 01 February 2020
Orbit: 508 x 3263 km, 33.3° (Epoch: 17 February)

Event Time Altitude Azimuth Distance (km) Brightness Sun altitude
Rises 09:52:29 0° 276° (W) 6,965 13.4 -16.7°
Reaches altitude 10° 09:56:56 10° 276° (W) 6,094 12.8 -17.6°
Maximum altitude 10:17:13 83° 192° (SSW) 3,089 9.9 -21.8°
Enters shadow 10:28:16 28° 108° (ESE) 3,986 10.1 -24.0°
Drops below altitude 10° 10:32:55 10° 107° (ESE) 4,901 - -25.0°
Sets 10:36:03 0° 106° (ESE) 5,607 - -25.6°
